Other Public Products
Issued by NWS Grand Forks, ND

Home | Current Version | Previous Version | Graphics & Text | Print | Product List | Glossary On
Versions: 1 2 3 4 5 6 7 8 9 10 11 12 13 14 15 16 17 18 19 20 21 22 23 24 25 26 27 28 29 30 31 32 33 34 35 36 37 38 39 40 41 42 43 44 45 46 47 48 49 50
000
FPUS83 KFGF 211131
OPUFGF
PRAIRIE TO PINES WEATHER ROUNDUP
NATIONAL WEATHER SERVICE EASTERN NORTH DAKOTA/GRAND FORKS ND
600 AM CDT TUE OCT 21 2014

 **SATELLITE DATA USED TO AUGMENT SKY COVER AT AUTOMATED STATIONS**
 *****  WEATHER ACROSS EASTERN NORTH DAKOTA  *****

CITY           SKY/WX    TMP DP  RH WIND       PRES   REMARKS
GRAND FORKS    CLEAR     39  37  92 S10       30.04R
GRAND FORKS AF CLEAR     37  37  99 S8        30.03S
GRAND CITY NWS   N/A     37 N/A N/A S7          N/A
BUXTON           N/A     38  37  99 SE8         N/A
DEVILS LAKE    CLEAR     46  36  66 SE14      29.93F
FARGO          CLEAR     43  38  82 SE14      30.05S
WAHPETON ARPT  SUNNY     39  34  81 SE12      30.08S
$$

 *****  WEATHER ACROSS CENTRAL AND WESTERN NORTH DAKOTA  *****

CITY           SKY/WX    TMP DP  RH WIND       PRES   REMARKS
JAMESTOWN      CLEAR     47  38  71 SE15      29.96S
BISMARCK       CLEAR     53  36  52 SE13      29.86F
MINOT          CLEAR     46  34  62 E8        29.83F
MINOT AFB      CLEAR     39  37  91 SE12      29.83F
GARRISON         N/A     49  36  61 SE7       29.83F
WILLISTON      CLEAR     39  36  89 NE3       29.76F
DICKINSON      CLEAR     40  34  79 SE12      29.78S
HETTINGER      CLEAR     40  35  83 E5        29.81S
$$

 *****  OTHER OBSERVATIONS NORTHEAST NORTH DAKOTA  *****

CITY           SKY/WX    TMP DP  RH WIND       PRES   REMARKS
WALHALLA       FAIR      37  37 100 S10       30.00S
LANGDON        FAIR      39  36  87 SE14      29.96F
CAVALIER       FAIR      37  36  93 S7        30.02S
GRAFTON        FAIR      36  36 100 SE8       30.03S
CANDO          FAIR      45  39  81 SE10      29.93F
FORT TOTTEN    NOT AVBL
ROLLA          FAIR      39  39 100 S7        29.94S
RUGBY          FAIR      46  39  76 SE13      29.89S
 ***** THE ABOVE OBSERVATIONS ARE NON NWS ARE NOT QUALITY
        CONTROLLED AND MAY MIS-REPORT RAIN FOR SNOW...
$$

 *****  OTHER OBSERVATIONS SOUTHEAST NORTH DAKOTA *****

CITY           SKY/WX    TMP DP  RH WIND       PRES   REMARKS
COOPERSTOWN    NOT AVBL
VALLEY CITY    FAIR      41  39  93 S12       30.00S
OAKES          MIX PCPN  41  39  93 E10       29.99S
GWINNER        SUNNY     43  37  81 SE9       30.02F
BUFFALO          N/A     39  37  90 SE12        N/A
WYNDMERE         N/A     39  37  93 SE8         N/A
 ***** THE ABOVE OBSERVATIONS ARE NON NWS ARE NOT QUALITY
       CONTROLLED AND MAY MIS-REPORT RAIN FOR SNOW...
$$

  *****  WEATHER ACROSS NORTHERN MINNESOTA  *****

CITY           SKY/WX    TMP DP  RH WIND       PRES   REMARKS
FLAG ISLAND    CLEAR     43  37  81 SE20      30.11S
WARROAD        CLEAR     36  32  87 SE9       30.11S
ROSEAU         CLEAR     37  34  87 SE8       30.09S
HALLOCK        CLEAR     39  36  87 SE10      30.04S
THF RVR FALLS  CLEAR     36  34  93 SE8       30.07F
HALSTAD          N/A     38  36  92 SE6         N/A
FOSSTON        CLEAR     37  34  87 SE8       30.09S
BAUDETTE       PTCLDY    35  32  88 SE7       30.14S
WASKISH        CLEAR     30  30 100 CALM      30.14S
CROOKSTON      CLEAR     37  36  93 SE10      30.07S
$$
  *****  WEATHER ACROSS CENTRAL AND WEST MINNESOTA  *****

CITY           SKY/WX    TMP DP  RH WIND       PRES   REMARKS
BEMIDJI        CLEAR     33  32  97 SE6       30.12S
PARK RAPIDS    CLEAR     37  35  92 SE7       30.12S
WADENA         CLEAR     34  34 100 SE6       30.12S
DETROIT LAKES  FAIR      39  37  93 SE14G21   30.10S
MOORHEAD       CLEAR     43  41  93 SE10      30.07S
FERGUS FALLS   CLEAR     43  36  75 SE12      30.10F
ELBOW LAKE     FAIR      41  37  87 SE10      30.10S
MORRIS MN      CLEAR     39  37  93 SE8       30.10R
STAPLES        CLEAR     34  34 100 CALM      30.14R
WHEATON        CLEAR     37  34  87 SE12      30.09S
$$
  *****  WEATHER ELSEWHERE ACROSS MINNESOTA  *****

CITY           SKY/WX    TMP DP  RH WIND       PRES   REMARKS
DULUTH         CLOUDY    43  36  76 E9        30.18R
INTRNTL FALLS  CLOUDY    40  34  79 SE5       30.17R
ELY            CLOUDY    37  32  81 E3        30.20R
CLOQUET        CLOUDY    43  37  81 E5        30.18S
BRAINERD       PTCLDY    31  30  96 CALM      30.15S
HIBBING        CLOUDY    41  35  79 SE6       30.18R
ALEXANDRIA     CLEAR     39  36  89 SE8       30.13S
SAINT CLOUD    CLEAR     39  35  86 E3        30.15S
MINNEAPOLIS    CLEAR     39  36  89 NE3       30.16R
$$

  *****  WEATHER ACROSS SOUTH DAKOTA  *****

CITY           SKY/WX    TMP DP  RH WIND       PRES   REMARKS
SIOUX FALLS    CLEAR     38  35  89 CALM      30.09R
BROOKINGS      NOT AVBL
WATERTOWN      CLEAR     46  38  73 SE9       30.05S
HURON          CLEAR     49  36  61 SE12      29.99F
SISSETON         N/A     39  37  92 S10       30.05F
ABERDEEN       CLEAR     48  39  71 SE9       29.97F
MITCHELL       CLEAR     48  37  65 SE13      30.02F
PIERRE         CLEAR     52  40  63 SE13      29.87F
MOBRIDGE       CLEAR     54  41  61 SE12      29.84S
RAPID CITY     CLEAR     49  39  68 SE3       29.84F
$$

  *****  SOME WEATHER IN NEARBY STATES *****

CITY           SKY/WX    TMP DP  RH WIND       PRES   REMARKS
GLASGOW MT     CLEAR     46  36  68 E13       29.68F
GREAT FALLS MT CLEAR     55  34  45 S5        29.67S
CHEYENNE WY    CLEAR     46  34  62 W12       30.05S
SCOTTSBLUFF NE CLEAR     47  41  80 SE7       29.96S
OMAHA NE       CLEAR     42  40  92 CALM      30.11R
DES MOINES IA  CLEAR     44  40  85 CALM      30.12R
DAVENPORT IA   CLEAR     37  35  92 N6        30.12R
CHICAGO IL     MOCLDY    48  40  73 N10       30.07R
EAU CLAIRE WI  CLEAR     36  34  92 NE7       30.17R
LA CROSSE WI   CLEAR     37  35  92 N6        30.16R
$$

  *****  SOME NATIONAL WEATHER *****

CITY           SKY/WX    TMP DP  RH WIND       PRES   REMARKS
LA GUARDIA NY  CLOUDY    56  45  66 CALM      29.89F
RALEIGH NC     PTCLDY    53  49  86 CALM      29.93R
ATLANTA GA     CLEAR     53  49  86 NW5       30.01R
NEW ORLEANS LA CLEAR     59  54  83 CALM      30.02R
OKLAHOMA CITY  PTCLDY    60  57  89 SE5       30.07R
ALBUQUERQUE NM MOCLDY    52  47  83 N5        30.15S
SALT LAKE CITY MOCLDY    64  40  41 S17       29.87F
LOS ANGELES CA MOCLDY    66  62  87 SE3       29.89F
BOISE ID       LGT RAIN  49  45  86 N7        29.91F
SEATTLE WA     LGT RAIN  54  50  86 SW8       29.84R
$$

*** WEATHER ACROSS MANITOBA...SASKATCHEWAN AND ONTARIO ***
                ***ONTARIO***

CITY           SKY/WX    TMP DP  RH WIND       PRES   REMARKS
GERALDTON      CLEAR     23  21  93 NE3       30.25R
THUNDER BAY    PTCLDY    27  27 100 NW3       30.26R
SIOUX LOOKOUT  CLOUDY    36  32  87 S8        30.19S
TORONTO        CLOUDY    52  46  82 NW6       29.80R
BIG TROUT LK   CLOUDY    34  32  93 S15G21    30.14F WCI  24
PICKLE LAKE    CLOUDY    34  30  86 S7        30.20
DRYDEN         CLOUDY    37  32  81 S13G18    30.17R
KENORA         CLOUDY    39  34  81 S13       30.13S
$$
                *** MANITOBA***

CITY           SKY/WX    TMP DP  RH WIND       PRES   REMARKS
BRANDON        CLEAR     43  39  87 SE10      29.90S
DAUPHIN        CLEAR     43  37  81 VRB5      29.82S
ISLAND LAKE    CLOUDY    37  36  93 SE13G20   30.01F
PILOT MOUND      N/A     39  36  87 SE12        N/A
THE PAS        CLEAR     41  41 100 SE15      29.68F
THOMPSON       CLOUDY    39  37  93 S6        29.76F
WINNIPEG       CLEAR     39  36  87 SE15      30.02S
LYNN LAKE      CLOUDY    41  39  93 S7        29.63F
CHURCHILL      CLOUDY    36  32  87 S15G23    29.79S
GILLAM         CLOUDY    37  34  87 S15G22    29.88S
$$
                ***SASKATCHEWAN***

CITY           SKY/WX    TMP DP  RH WIND       PRES   REMARKS
ESTEVAN        CLEAR     39  36  87 E10       29.77F
KINDERSLEY     CLEAR     43  36  75 S12       29.60F
LLOYDMINSTER   MOCLDY    39  32  75 SE3       29.50R
PRINCE ALBERT  CLEAR     34  34 100 E3        29.59S
REGINA         CLEAR     45  41  87 SE14      29.71S
YORKTON        CLEAR     45  37  76 S14       29.73F



USA.gov is the U.S. government's official web portal to all federal, state and local government web resources and services.